This is the latest recevied weather packets stored in our database for station/object KI8L. If no packets are shown the sender has not sent any weather packets the latest 1 day(s).
| Time | Temp. | Humidity | Pressure | Rain* | Wind** | Luminosity | Snow |
|---|---|---|---|---|---|---|---|
| 1778034554 | 9.44° C | 99% | 1011.4 hPa | 3.05 mm | 0.89 m/s, 16° | 0 W/m² | - |
| 1778034252 | 9.44° C | 99% | 1011.7 hPa | 4.83 mm | 0.45 m/s, 12° | 0 W/m² | - |
| 1778033950 | 10° C | 99% | 1011.3 hPa | 4.32 mm | 0.89 m/s, 355° | 0 W/m² | - |
| 1778033647 | 10° C | 99% | 1011.4 hPa | 3.05 mm | 0.45 m/s, 355° | 0 W/m² | - |
| 1778033343 | 10° C | 99% | 1011.4 hPa | 4.83 mm | 0 m/s | 0 W/m² | - |
| 1778033042 | 10° C | 99% | 1011.5 hPa | 4.32 mm | 0 m/s | 0 W/m² | - |
| 1778032738 | 10° C | 99% | 1011.1 hPa | 3.05 mm | 0.89 m/s, 353° | 0 W/m² | - |
| 1778032436 | 10° C | 99% | 1011.1 hPa | 3.56 mm | 0.45 m/s, 56° | 0 W/m² | - |
| 1778032133 | 10° C | 99% | 1010.7 hPa | 3.05 mm | 0.89 m/s, 43° | 0 W/m² | - |
| 1778031830 | 10° C | 99% | 1010.9 hPa | 3.05 mm | 0.89 m/s, 358° | 0 W/m² | - |
| 1778031526 | 10° C | 99% | 1010.7 hPa | 3.05 mm | 0.45 m/s, 24° | 0 W/m² | - |
| 1778031224 | 10° C | 99% | 1010.5 hPa | 4.32 mm | 0.45 m/s, 40° | 0 W/m² | - |
| 1778030920 | 10° C | 99% | 1010.3 hPa | 4.83 mm | 0.89 m/s, 3° | 0 W/m² | - |
| 1778030617 | 10° C | 99% | 1010.4 hPa | 6.1 mm | 0.89 m/s, 36° | 0 W/m² | - |
| 1778030314 | 10° C | 99% | 1010.6 hPa | 8.89 mm | 0.89 m/s, 29° | 0 W/m² | - |
| 1778030011 | 10° C | 99% | 1010.5 hPa | 7.87 mm | 1.79 m/s, 32° | 0 W/m² | - |
| 1778029708 | 10° C | 99% | 1010.5 hPa | 7.87 mm | 0.89 m/s, 341° | 0 W/m² | - |
| 1778029406 | 10° C | 99% | 1010.4 hPa | 11.94 mm | 0.89 m/s, 32° | 0 W/m² | - |
| 1778029103 | 10° C | 99% | 1010.4 hPa | 13.72 mm | 1.79 m/s, 4° | 0 W/m² | - |
| 1778028800 | 10.56° C | 99% | 1010.2 hPa | 9.65 mm | 1.34 m/s, 17° | 0 W/m² | - |
| 1778028496 | 10.56° C | 99% | 1010 hPa | 8.89 mm | 1.34 m/s, 22° | 0 W/m² | - |
| 1778028194 | 11.11° C | 99% | 1010.2 hPa | 8.89 mm | 0.89 m/s, 0° | 0 W/m² | - |
| 1778027889 | 11.11° C | 99% | 1010.3 hPa | 9.65 mm | 0.45 m/s, 0° | 0 W/m² | - |
| 1778027586 | 11.11° C | 99% | 1009.9 hPa | 8.89 mm | 0.45 m/s, 35° | 0 W/m² | - |
| 1778027282 | 11.11° C | 99% | 1009.9 hPa | 6.1 mm | 0 m/s | 0 W/m² | - |
* Rain latest hour (hover to see other rain measurements)
** Current wind speed in m/s (hover to see current wind gust speed)